Location: Wiesbaden
(50.0830°N, 8.2500°E)
Time: 09:04:39
(UTC+01:00)

ISS - Pass Details

Date: 16 December 2018
Orbit: 401 x 408 km, 51.6° (Epoch: 12 December)

Event Time Altitude Azimuth Distance (km) Brightness Sun altitude
Rises 17:03:31 0° 280° (W) 2,320 0.9 -6.0°
Reaches altitude 10° 17:06:39 10° 247° (WSW) 1,454 0.8 -6.4°
Maximum altitude 17:07:56 12° 224° (SW) 1,344 0.2 -6.6°
Drops below altitude 10° 17:09:13 10° 200° (SSW) 1,449 -0.2 -6.8°
Sets 17:12:20 0° 167° (SSE) 2,301 0.2 -7.2°
